Regional Weather Roundup
Issued by NWS Sioux Falls, SD

Home | Current Version | Previous Version | Graphics & Text | Print | Product List | Glossary Off
Versions: 1 2 3 4 5 6 7 8 9 10 11 12 13 14 15 16 17 18 19 20 21 22 23 24 25 26 27 28 29 30 31 32 33 34 35 36 37 38 39 40 41 42 43 44 45 46 47 48 49 50

000
ASUS43 KFSD 210602
RWRFSD

WEATHER ROUNDUP FOR SE SOUTH DAKOTA/SW MINNESOTA/NW IOWA
NATIONAL WEATHER SERVICE SIOUX FALLS SD
100 AM CDT THU SEP 21 2017

NOTE: "FAIR" INDICATES FEW OR NO CLOUDS BELOW 12,000 FEET WITH NO
SIGNIFICANT WEATHER AND OR OBSTRUCTIONS TO VISIBILITY.


SDZ038>040-050-052>070-210700-
SOUTHEAST SOUTH DAKOTA

CITY           SKY/WX    TMP DP  RH WIND       PRES   REMARKS
BROOKINGS      CLEAR     51  46  83 SE8       29.92R
CHAMBERLAIN    NOT AVBL
HURON          CLEAR     55  48  77 SE10      29.86S
6HR MIN TEMP:  55; 6HR MAX TEMP:  70;

MADISON        FAIR      52  50  93 S6        29.92R
MITCHELL       CLEAR     55  48  77 SE8       29.88S
6HR MIN TEMP:  55; 6HR MAX TEMP:  72;

SIOUX FALLS    CLEAR     50  48  93 CALM      29.92R
6HR MIN TEMP:  50; 6HR MAX TEMP:  67; 6HR PCP: TRACE;

WINNER         FAIR      64  43  46 S17G25    29.82F
YANKTON        CLEAR     54  50  86 CALM      29.90S
$$

MNZ071-072-080-081-089-090-097-098-210700-
SOUTHWEST MINNESOTA

CITY           SKY/WX    TMP DP  RH WIND       PRES   REMARKS
FAIRMONT       CLEAR     53  49  86 E3        29.98R
JACKSON        CLEAR     52  46  82 CALM      29.98R
LUVERNE        CLEAR     50  46  87 CALM      29.95R
MARSHALL       NOT AVBL
MONTEVIDEO     CLEAR     52  46  82 S6        29.94R
PIPESTONE      CLEAR     54  45  71 SE6       29.93S
REDWOOD FALLS  CLEAR     55  48  77 E7        29.95R
TRACY          CLEAR     56  48  76 SE6       29.96R
WINDOM         CLEAR     54  46  76 CALM      29.97R
WORTHINGTON    CLEAR     50  47  89 E7        29.97R
$$

IAZ001>003-012>014-020>022-031-032-NEZ013-014-SDZ071-210700-
NORTHWEST IOWA

CITY           SKY/WX    TMP DP  RH WIND       PRES   REMARKS
CHEROKEE       CLEAR     51  51 100 CALM      29.95R
DENISON        CLEAR     55  54  94 NE5       29.94S
ESTHERVILLE    CLEAR     50  49  96 NE3       29.97R
LE MARS        CLEAR     50  50 100 MISG      29.93R
ORANGE CITY    CLEAR     55  52  88 E6        29.94R HAZE
SHELDON        CLEAR     48  46  93 E3        29.94R
SIOUX CITY     CLEAR     51  50  96 CALM      29.91S
6HR MIN TEMP:  51; 6HR MAX TEMP:  72;

SPENCER        CLEAR     51  48  89 E3        29.96R
6HR MIN TEMP:  49; 6HR MAX TEMP:  70;

STORM LAKE     CLEAR     55  48  76 E7        29.95S
$$

ABBREVIATIONS USED IN REMARKS
   TC - TEMPERATURE IN CELSIUS
  WCI - WIND CHILL INDEX
   HX - HEAT INDEX
  VSB - VISIBILITY





USA.gov is the U.S. government's official web portal to all federal, state and local government web resources and services.